* Astronomy

Members Login
Username 
 
Password 
    Remember Me  
Post Info TOPIC: Asteroid 2009 HJ36


L

Posts: 131433
Date:
Asteroid 2009 HJ36
Permalink  
 


The 7 - 16 metre wide asteroid 2009 HJ36 will make a close pass (9.6 Lunar Distances, 0.0246 AU), travelling at 6.10 km/s, to the Earth-Moon system on the 28th April 2009.

See more

The Lunar Distance (LD), the distance between Earth and the Moon, equals 384,401 km, (or 0.00256 AU).


__________________


L

Posts: 131433
Date:
Permalink  
 

Orbital elements:
2009 HJ36                                                Earth MOID = 0.0170 AU
Epoch 2009 June 18.0 TT = JDT 2455000.5 MPC
M 17.06092 (2000.0) P Q
n 0.49976598 Peri. 202.98071 -0.54274550 +0.83905537
a 1.5726241 Node 34.18209 -0.75982558 -0.47143667
e 0.3553094 Incl. 3.83689 -0.35789999 -0.27153922
P 1.97 H 27.9 G 0.15 U 7

MPEC 2009 - H38


__________________
Page 1 of 1  sorted by
 
Quick Reply

Please log in to post quick replies.



Create your own FREE Forum
Report Abuse
Powered by ActiveBoard